www.pogodaiklimat.ru

Погода и климат >> Архив погоды >> Россия >> Ростовская область >> Ростов-на-Дону


АРХИВ ПОГОДЫ в Ростове-на-Дону

Время (UTC), дата Ветер
(напр.,м/с)
 
Видим.   Явления Облачность Т
(С)
Тd
(С)
f
(%)
Тe
(С)
Тes
(С)
Комфортность P
(гПа)
Po
(гПа)
Тmin
(С)
Tmax
(С)
R
(мм)
S
(см)
21 20.03 ЮЗ 4
{10}
7000 м дымка {дождь} 5/4
[St Ac trans]
+2.0 +0.6 90 -3 -3 по сезону 1011.4 1002.1
00 21.03 ЮЗ 3
{10}
6000 м дымка {дождь} 9/5 180 м
[St Ac trans]
+2.2 +1.1 92 -2 -2 по сезону 1011.8 1002.5
03 21.03 ЮЗ 3 1200 м в посл. час туман 10/8 60 м
[Sc Ac trans]
+1.9 +1.1 94 -3 -3 по сезону 1012.4 1003.1 +1.6 0.0
06 21.03 ЮЗ 3 600 м туман ?/? +2.4 +1.7 95 -2 -2 по сезону 1013.5 1004.2
09 21.03 Ю 2 10 км {туман} 8/8 500 м
[Cb calv]
+7.3 +3.0 74 +5 +7 по сезону 1013.3 1004.2
12 21.03 З 2 10 км в посл. час ливневой дождь {туман} 8/5
[Cb calv Ac trans]
+7.5 +0.6 62 +6 +8 по сезону 1013.5 1004.4
15 21.03 СЗ 3 10 км 6/4
[Cb calv Ac trans]
+6.5 +1.1 68 +4 +4 по сезону 1014.7 1005.5 +8.2 0.0
18 21.03 З 3 6000 м дымка {ливн. осадки} 4/0
[Ac trans]
+4.1 +2.0 86 0 0 по сезону 1015.6 1006.4
21 21.03 СЗ 3 8000 м дымка ясно +3.8 +1.0 82 0 0 по сезону 1016.0 1006.7
00 22.03 СЗ 3 8000 м 9/4
[Sc Ac trans]
+4.9 +1.8 80 +1 +1 по сезону 1016.1 1006.9
03 22.03 СЗ 4 5000 м слабый ливневой дождь 10/5
[Cb calv Ac und]
+4.7 +3.2 90 0 0 по сезону 1017.0 1007.8 +3.7 3
06 22.03 СЗ 4 7000 м в посл. час ливневой дождь 9/5 330 м
[Cb calv Ac trans]
+6.3 +4.7 89 +2 +3 по сезону 1018.0 1008.8
09 22.03 СЗ 6
{10}
10 км 9/4
[Sc Ac trans]
+7.9 +4.6 80 +4 +5 по сезону 1017.7 1008.6
12 22.03 С 5
{10}
10 км 9/3
[Sc Ac trans]
+11.8 +4.8 62 +10 +11 тепло 1017.7 1008.7
15 22.03 С 4
{10}
10 км 4/1
[Sc Ac trans Ci fib]
+12.2 +4.4 59 +10 +11 тепло 1018.0 1009.0 +13.1 0.5
18 22.03 С 4 8000 м 8/4 1500 м
[Sc Ac trans]
+10.8 +4.5 65 +9 +9 тепло 1019.0 1010.0
21 22.03 В 2 6000 м дымка 3/0
[Ac trans]
+3.0 +1.2 88 -0 -0 по сезону 1020.8 1011.5
00 23.03 штиль 0 8000 м дымка ясно +2.8 +0.2 83 +2 +2 по сезону 1021.3 1012.0
03 23.03 В 3 4300 м местами туман поземный 3/0
[Ci fib]
-0.1 -1.4 91 -5 -5 прохладно 1022.1 1012.7 -0.1
06 23.03 В 2 10 км дымка 3/0
[Ci fib]
+5.7 +1.3 73 +3 +8 по сезону 1023.4 1014.1
09 23.03 ЮВ 2 10 км 5/3
[Sc Ac trans Ci fib]
+10.9 +1.8 53 +10 +17 тепло 1023.4 1014.3
12 23.03 СВ 4 10 км 4/1
[Sc Ac trans Ci fib]
+13.2 +2.3 48 +12 +15 тепло 1022.9 1013.9
15 23.03 ЮВ 3 10 км 3/0
[Ac trans Ci fib]
+11.6 +2.2 52 +10 +10 тепло 1023.5 1014.4 +13.6
18 23.03 В 3 8000 м 5/0
[Ac trans]
+6.8 +2.7 75 +4 +4 по сезону 1025.2 1016.0
21 23.03 Ю 2 8000 м 8/0
[Ac trans Ci fib]
+5.7 +2.7 81 +3 +3 по сезону 1026.2 1016.9
00 24.03 ЮЗ 3 8000 м 9/0
[Ac trans]
+5.2 +2.6 83 +2 +2 по сезону 1025.8 1016.5
03 24.03 ЮЗ 2 8000 м 9/0
[Ac trans]
+5.1 +2.5 83 +3 +3 по сезону 1025.8 1016.5 +4.9
06 24.03 Ю 2 10 км в посл. час дождь 9/4
[Sc Ac trans]
+5.5 +2.8 83 +3 +4 по сезону 1026.5 1017.2 +4.8
09 24.03 Ю 4 10 км {дождь} 8/3
[Sc Ac trans]
+12.0 +4.9 62 +10 +13 тепло 1025.3 1016.2
12 24.03 ЮЗ 4 10 км {дождь} 4/0
[Ac trans Ci fib]
+16.4 +5.4 48 +16 +20 тепло 1022.8 1013.9
15 24.03 З 2
{10}
10 км 9/0
[Ac trans]
+14.0 +3.7 50 +14 +14 тепло 1021.4 1012.4 +16.4
18 24.03 ЮЗ 4
{10}
8000 м 9/3
[Sc Ac trans]
+11.9 +2.9 54 +10 +10 тепло 1020.9 1011.9
21 24.03 З 4 8000 м {дождь} 9/4
[Sc Ac trans]
+11.0 +2.9 57 +9 +9 тепло 1019.3 1010.3
00 25.03 З 5 8000 м {дождь} 8/4
[Sc Ac trans]
+9.1 +4.1 71 +6 +6 тепло 1017.5 1008.4
03 25.03 ЮЗ 5 5000 м дымка 9/5
[Sc Ac trans]
+6.7 +4.7 87 +3 +3 по сезону 1015.8 1006.6 +6.7 0.0
06 25.03 З 4
{12}
6000 м слабый ливневой дождь 9/5 360 м
[Cb calv Ac trans]
+7.2 +4.8 85 +4 +5 по сезону 1015.2 1006.1
09 25.03 С 6
{10}
8000 м слабый ливневой дождь 9/6 750 м
[Cb calv Ac trans]
+5.9 +3.3 83 +1 +2 по сезону 1016.1 1006.9
12 25.03 СЗ 4
{10}
10 км {ливн. осадки} 8/5
[Sc Ac trans]
+8.6 +0.1 55 +6 +7 по сезону 1015.6 1006.5
15 25.03 С 4 10 км 8/4
[Sc Ac trans]
+8.7 -3.8 41 +6 +6 по сезону 1015.6 1006.5 +9.8 0.3
18 25.03 СВ 4 8000 м 9/5 2000 м
[Sc Ac trans]
+6.0 -4.0 49 +3 +3 по сезону 1016.6 1007.4
21 25.03 В 3 8000 м 9/0
[Ac trans]
+4.5 -3.2 57 +1 +1 по сезону 1016.6 1007.4
00 26.03 В 3 8000 м 9/0
[Ac trans]
+3.5 -2.8 63 0 0 по сезону 1016.1 1006.8
03 26.03 В 4 8000 м 9/4
[Sc Ac trans]
+3.0 -2.3 68 -1 -1 по сезону 1015.5 1006.2 +2.8
06 26.03 В 5 10 км {ливн. осадки} 9/4
[Cb calv Ac trans]
+4.1 +1.2 81 -1 0 по сезону 1016.1 1006.9 +2.7
09 26.03 Ю 2 7000 м слабый ливневой дождь 10/6
[Cb calv Ac und]
+4.5 +2.4 86 +2 +3 по сезону 1016.3 1007.1
12 26.03 В 5 10 км в посл. час ливневой дождь 9/5
[Cb calv Ac trans]
+4.4 +2.9 90 -1 0 очень
холодно
1015.3 1006.1
15 26.03 В 4 10 км 9/4
[Cb calv Ac trans]
+4.6 +2.2 84 0 0 прохладно 1015.4 1006.2 +5.6 2
18 26.03 В 4 8000 м слабый ливневой дождь 9/4
[Cb calv Ac trans]
+3.7 +2.3 91 -1 -1 прохладно 1016.1 1006.8
21 26.03 В 1 3600 м слабый ливневой дождь 10/5
[Cb calv Ac und]
+3.2 +2.3 94 +2 +2 по сезону 1015.5 1006.2
00 27.03 З 1 5000 м дымка {ливн. осадки} 9/9 120 м
[Sc]
+3.2 +2.3 94 +2 +2 по сезону 1014.4 1005.1
03 27.03 З 1 2100 м дымка {туман} 8/5 480 м
[Sc Ac trans]
+1.5 +0.5 93 -0 -0 по сезону 1013.4 1004.1 +1.3 1
06 27.03 З 4 7000 м дымка {туман} 9/6 540 м
[Sc Ac trans]
+4.7 +2.3 84 +1 +1 по сезону 1012.2 1003.0
09 27.03 З 6-10
{12}
10 км 8/4
[Sc Ac trans Ci fib]
+8.3 -1.9 49 +5 +7 по сезону 1009.9 1000.8
12 27.03 З 9-14
{16}
10 км 9/4
[Sc Ac trans]
+7.1 -1.7 54 +2 +2 холодно 1008.2 999.1
15 27.03 З 6-10
{15}
10 км слабый ливневой дождь 10/5
[Sc Ac und]
+4.9 -0.4 69 0 0 холодно 1009.1 999.9 +8.8 0.6

 

Местоположение метеостанции Ростов-на-Дону (Ростовская область, Россия): широта 47.27 долгота 39.82 высота над уровнем моря 75 м.

В архиве по умолчанию представлена погода в Ростове-на-Дону за последнюю неделю. Архивные данные за месяц целиком и за предыдущие месяцы, начиная с января 2011 года, Вы можете получить, выбрав интересующий диапазон дат из раскрывающегося списка и нажав кнопку "Ввод!".

Внимание! Время в таблицах - всемирное. Для получения местного времени необходимо прибавить поправку, которая в Ростове-на-Дону равна 3 ч.

Смотрите также архив погоды в соседних городах и на ближайших метеорологических станциях:

Погода в Шахтах (Ростовская область, Россия) (59 км)
Погода в Зерноград (Ростовская область, Россия) (60 км)
Погода в Таганроге (Ростовская область, Россия) (70 км)
Погода в Матвеевом Кургане (Ростовская область, Россия) (78 км)
Погода в Семикаракорске (Ростовская область, Россия) (81 км)
Погода в Маргаритово (Ростовская область, Россия) (81 км)
Погода в Кущевской (Краснодарский край, Россия) (84 км)
Погода в Константиновске (Ростовская область, Россия) (102 км)
Погода в Староминская (Краснодарский край, Россия) (102 км)
Погода в Каменск-Шахтинском (Ростовская область, Россия) (120 км)

Пояснения к столбцам:

Ветер - указаны скорость ветра в м/с - средняя за 10 мин, порывы в срок и между сроками (в фигурных скобках) и направление, откуда дует ветер: С - северный, СВ - северо-восточный, В - восточный, ЮВ - юго-восточный, Ю - южный, ЮЗ - юго-западный, З - западный, СЗ - северо-западный.
Видимость - горизонтальная дальность видимости в метрах или километрах. При видимости от 1 до 10 км при отсутствии осадков обычно наблюдается дымка, при ухудшении видимости до 1 км и менее - туман. В сухую погоду видимость может ухудшаться дымом, пылью или мглою.
Явления - указаны атмосферные явления, наблюдавшиеся в срок или в последний час перед сроком; фигурными скобками обозначены явления, наблюдавшиеся между сроками (за 1-3 часа до срока); квадратными скобками обозначены град или гололедные отложения с указанием их диаметра в мм.
Облачность - указаны через наклонную черту общая и нижняя облачность в баллах и высота нижней границы облаков в метрах; квадратными скобками обозначены формы облаков: Ci - перистые, Cs - перисто-слоистые, Cc - перисто-кучевые, Ac - высококучевые, As - высокослоистые, Sc - слоисто-кучевые, Ns - слоисто-дождевые, Cu - кучевые, Cb - кучево-дождевые. Подробнее классификацию облаков см. в Атласе облаков (PDF).
T - Температура воздуха - температура, измеренная на высоте 2 м над землей.
Td - Температура точки росы - температура, при понижении до которой содержащийся в воздухе водяной пар достигнет насыщения.
f - Относительная влажность воздуха - влажноcть воздуха, измеренная на высоте 2 м над землей.
Te - Эффективная температура - температура, которую ощущает одетый по сезону человек в тени. Характеристика душности погоды. При расчете учитывается влияние влажности воздуха и скорости ветра на теплоощущения человека.
Tes - Эффективная температура на солнце - температура, которую ощущает человек, с поправкой на солнечный нагрев. Характеристика знойности погоды. Зависит от высоты солнца над горизонтом, облачности и скорости ветра. Ночью, в пасмурную погоду, а также при ветре 12 м/с и более поправка равна нулю.
P - Атмосферное давление - приведенное к уровню моря атмосферное давление.
Po - Атмосферное давление - измеренное на уровне метеостанции атмосферное давление.
Tmin - Минимальная температура - минимум температуры воздуха на высоте 2 м над землей.
Tmax - Максимальная температура - максимум температуры воздуха на высоте 2 м над землей.
R - Количество осадков - Количество выпавших осадков, мм. При наведении курсора мыши на число - период времени, за который выпало указанное количество осадков.
S - Снежный покров - Высота снежного покрова, см. При наведении курсора мыши на число - состояние снежного покрова и степень покрытия местности в баллах.